Regional Weather Roundup
Issued by NWS

Home | Current Version | Previous Version | Graphics & Text | Print | Product List | Glossary Off
Versions: 1 2 3 4 5 6 7 8 9 10 11 12 13 14 15 16 17 18 19 20 21 22 23 24 25 26 27 28 29 30 31 32 33 34 35 36 37 38 39 40 41 42 43 44 45 46 47 48 49 50

000
ASUS43 KTOP 092059
RWRKS

WEATHER ROUNDUP FOR KANSAS
NATIONAL WEATHER SERVICE GOODLAND KS
400 PM CDT WED JUL 09 2014

NOTE:  "FAIR" INDICATES FEW OR NO CLOUDS BELOW 12,000 FEET WITH NO
SIGNIFICANT WEATHER AND/OR OBSTRUCTIONS TO VISIBILITY.

KSZ001>006-013>018-027>032-041>047-092200-
NORTHWEST KANSAS

CITY           SKY/WX    TMP DP  RH WIND       PRES   REMARKS
GOODLAND       MOSUNNY   86  60  41 S24G31    30.02F
HAYS           SUNNY     88  61  40 S15G25    30.02F
HILL CITY      SUNNY     90  57  32 S21G28    29.99F
RUSSELL        SUNNY     89  58  34 S18G24    30.00F
$$

KSZ061>065-074>080-084>089-092200-
SOUTHWEST KANSAS

CITY           SKY/WX    TMP DP  RH WIND       PRES   REMARKS
DODGE CITY     SUNNY     85  63  47 SE18G29   30.04F
ELKHART          N/A     93  60  33 SE16        N/A
GARDEN CITY    MOSUNNY   86  64  47 SW21G31   30.02F
GREAT BEND     MOSUNNY   88  61  40 SE16      30.01F
LIBERAL        MOSUNNY   90  63  40 SE14G23   30.04F
$$

KSZ066>073-081>083-090>101-092200-
SOUTHEAST KANSAS

CITY           SKY/WX    TMP DP  RH WIND       PRES   REMARKS
CHANUTE        SUNNY     87  56  34 VRB5      30.04F
COFFEYVILLE    SUNNY     89  58  34 N8        30.02F
HUTCHINSON     PTSUNNY   90  59  35 S7G18     30.03F
MEDICINE LODGE   N/A     90  54  29 SE12G20   30.01F
NEWTON         SUNNY     88  57  35 S13       30.07F
PARSONS        SUNNY     87  60  40 E3        30.04F
WICHITA INTL   MOSUNNY   88  60  38 E10       30.02F
WICHITA JABRA  SUNNY     86  63  45 SE7       30.03F
WINFIELD       SUNNY     88  65  46 SE8       30.03F
$$

KSZ007>012-019>026-033>040-048>060-102>105-092200-
NORTHEAST KANSAS

CITY           SKY/WX    TMP DP  RH WIND       PRES   REMARKS
CONCORDIA      MOSUNNY   85  60  42 S7        30.02F
EMPORIA        SUNNY     87  56  34 CALM      30.04F
LAWRENCE       SUNNY     87  61  41 N8        30.04F
MANHATTAN      SUNNY     89  55  31 VRB3      30.02F
OLATHE IND     SUNNY     85  61  44 NW9       30.05F
OLATHE EXE     MOSUNNY   83  60  45 N7        30.04F
SALINA         SUNNY     91  58  32 SW13      30.01F
TOPEKA BILLARD SUNNY     88  54  31 NW7       30.04F
TOPEKA FORBES  SUNNY     86  55  34 CALM      30.05F
$$



USA.gov is the U.S. government's official web portal to all federal, state and local government web resources and services.